Weather History for Phoenix, AZ

Change the Weather History Date:

Friday, March 2, 2012

  Actual Average Record
Temperature  
Mean Temperature 60 °F 62 °F  
Max Temperature 68 °F 74 °F 90 °F (1921)
Min Temperature 51 °F 51 °F 30 °F (1971)
Degree Days  
Heating Degree Days 5 4  
Month to date heating degree days 11 8  
Since 1 July heating degree days 768 841  
Cooling Degree Days 0 1  
Month to date cooling degree days 0 2  
Year to date cooling degree days 12 19  
Growing Degree Days 10 (Base 50)    
Moisture  
Dew Point 8 °F    
Average Humidity 23    
Maximum Humidity 41    
Minimum Humidity 5    
Precipitation  
Precipitation 0.00 in 0.04 in 0.74 in (1970)
Month to date precipitation 0.00 0.08  
Year to date precipitation T 1.91  
Snow  
Snow 0.00 in - - ()
Month to date snowfall 0.0  
Year to date snowfall 0.0  
Since 1 July snowfall 0.0  
Snow Depth 0.00 in    
Sea Level Pressure  
Sea Level Pressure 30.03 in    
Wind  
Wind Speed 10 mph (NNW)    
Max Wind Speed 26 mph    
Max Gust Speed 37 mph    
Visibility 10 miles    
Events      
T = Trace of Precipitation, MM = Missing Value Source: NWS Daily Summary

Daily Weather History Graph

Daily Weather History Graph

Search for Another Location

Airport:

Trip Planner

Search our weather history database for the weather conditions in past years. The results will help you decide how hot, cold, wet, or windy it might be!

Date:

Astronomy

Mar. 02, 2012 Rise Set
Actual Time 6:54 AM MST 6:26 PM MST
Civil Twilight 6:29 AM MST 6:51 PM MST
Nautical Twilight 6:00 AM MST 7:19 PM MST
Astronomical Twilight 5:31 AM MST 7:48 PM MST
Moon 12:54 PM MST (3/2) 2:34 AM MST (3/2)
Length of Visible Light 12h 21m
Length of Day
11h 31m
Waxing Gibbous, 67% of the Moon is Illuminated
Mar 2
Waxing Gibbous
Mar 8
Full
Mar 14
Last Quarter
Mar 22
New
Mar 30
First Quarter

Hourly Weather History & Observations

Time (MST) Temp. Dew Point Humidity Pressure Visibility Wind Dir Wind Speed Gust Speed Precip Events Conditions
12:51 AM 57.0 °F 32.0 °F 39% 29.86 in 10.0 mi WSW 4.6 mph - N/A   Clear
1:51 AM 57.9 °F 32.0 °F 37% 29.87 in 10.0 mi WNW 4.6 mph - N/A   Clear
2:51 AM 57.0 °F 32.0 °F 39% 29.86 in 10.0 mi West 5.8 mph - N/A   Clear
3:51 AM 55.4 °F 32.0 °F 41% 29.90 in 10.0 mi NW 6.9 mph - N/A   Clear
4:51 AM 55.0 °F 32.0 °F 42% 29.90 in 10.0 mi West 9.2 mph - N/A   Clear
5:51 AM 53.1 °F 30.9 °F 43% 29.93 in 10.0 mi West 6.9 mph - N/A   Clear
6:51 AM 52.0 °F 28.0 °F 40% 29.96 in 10.0 mi NW 6.9 mph - N/A   Clear
7:51 AM 53.1 °F 28.9 °F 40% 30.01 in 10.0 mi NW 8.1 mph - N/A   Clear
8:51 AM 57.0 °F 7.0 °F 14% 30.04 in 10.0 mi North 16.1 mph 21.9 mph N/A   Clear
9:51 AM 57.0 °F -0.0 °F 10% 30.07 in 10.0 mi NNW 15.0 mph - N/A   Clear
10:51 AM 59.0 °F -5.1 °F 7% 30.07 in 10.0 mi NNW 20.7 mph 29.9 mph N/A   Clear
11:51 AM 61.0 °F -7.1 °F 6% 30.06 in 10.0 mi NNW 21.9 mph 28.8 mph N/A   Clear
12:51 PM 63.0 °F -7.1 °F 6% 30.06 in 10.0 mi NNW 18.4 mph 28.8 mph N/A   Clear
1:51 PM 64.9 °F -6.0 °F 6% 30.05 in 10.0 mi NNW 20.7 mph 24.2 mph N/A   Clear
2:51 PM 66.9 °F -6.0 °F 5% 30.04 in 10.0 mi North 13.8 mph 24.2 mph N/A   Clear
3:51 PM 66.9 °F -5.1 °F 6% 30.04 in 10.0 mi North 13.8 mph - N/A   Clear
4:51 PM 68.0 °F -6.0 °F 5% 30.04 in 10.0 mi North 15.0 mph 24.2 mph N/A   Clear
5:51 PM 66.0 °F -5.1 °F 6% 30.06 in 10.0 mi NNW 4.6 mph - N/A   Clear
6:51 PM 64.9 °F -4.0 °F 6% 30.07 in 10.0 mi NNE 9.2 mph - N/A   Clear
7:51 PM 63.0 °F -4.0 °F 7% 30.09 in 10.0 mi East 6.9 mph - N/A   Clear
8:51 PM 60.1 °F -5.1 °F 7% 30.12 in 10.0 mi ENE 12.7 mph - N/A   Clear
9:51 PM 57.0 °F -2.9 °F 9% 30.15 in 10.0 mi East 8.1 mph - N/A   Clear
10:51 PM 55.9 °F -2.0 °F 9% 30.18 in 10.0 mi Calm Calm - N/A   Clear
11:51 PM 55.9 °F -2.0 °F 9% 30.20 in 10.0 mi Calm Calm - N/A   Clear